Date String (YYYY-MM-DD hh:mm:ss) UTC,Instrument flags,absolute air pressure of the measurement (hPa),sample flow rate (lpm),inlet stack bypass flow (lpm),air temperature of the measurement (°C),ambient temperature measured by the external sensor (°C),aerosol sample conditioner tube jacket temperature (°C),OPC LED temperature (°C),internal box temperature (°C),relative humidity of the measurement (%),span deviation,mass concentration of particles derived from Lorenz-Mie calculation of OPC scattering (μg/m³),mass concentration of particles derived from Lorenz-Mie calculation of OPC scattering (μg/m³),mass concentration of particles derived from Lorenz-Mie calculation of OPC scattering (μg/m³)
DateTimeUTC,F1_M11,P_M11,Q1_M11,Q2_M11,T1_M11,T2_M11,T3_M11,T4_M11,T5_M11,U1_M11,ZSPAN_M11,X2_M11,X0_M11,X1_M11
2024-01-05 23:00:00,SystemResetWarning,0822.2,5.01,000.00,022.0,021.2,000.0,030.2,023.2,11.9,0000.0,0004.16,0009.11,0003.78
2024-01-05 23:01:00,SystemResetWarning,0822.2,5.00,000.00,022.0,021.2,000.0,030.2,023.2,11.9,0000.0,0004.15,0008.86,0003.78
2024-01-05 23:02:00,SystemResetWarning,0822.2,5.01,000.00,022.0,021.3,000.0,030.2,023.3,11.8,0000.0,0004.14,0008.41,0003.77
2024-01-05 23:03:00,SystemResetWarning,0822.2,5.00,000.00,022.0,021.3,000.0,030.2,023.3,11.7,0000.0,0004.15,0008.41,0003.76
2024-01-05 23:04:00,SystemResetWarning,0822.2,5.01,000.00,022.0,021.3,000.0,030.2,023.3,11.7,0000.0,0004.15,0008.35,0003.75
2024-01-05 23:05:00,SystemResetWarning,0822.2,4.99,000.00,022.0,021.3,000.0,030.2,023.3,11.7,0000.0,0004.13,0008.20,0003.74
2024-01-05 23:06:00,SystemResetWarning,0822.3,5.00,000.00,022.1,021.3,000.0,030.3,023.3,11.7,0000.0,0004.14,0007.85,0003.74
2024-01-05 23:07:00,SystemResetWarning,0822.2,4.99,000.00,022.1,021.4,000.0,030.3,023.4,11.6,0000.0,0004.17,0007.76,0003.73
2024-01-05 23:08:00,SystemResetWarning,0822.2,5.00,000.00,022.1,021.4,000.0,030.3,023.4,11.7,0000.0,0004.18,0007.79,0003.73
2024-01-05 23:09:00,SystemResetWarning,0822.2,5.00,000.00,022.1,021.5,000.0,030.3,023.4,11.7,0000.0,0004.15,0007.77,0003.72
2024-01-05 23:10:00,SystemResetWarning,0822.3,5.00,000.00,022.1,021.5,000.0,030.3,023.5,11.7,0000.0,0004.16,0008.33,0003.72
2024-01-05 23:11:00,SystemResetWarning,0822.3,5.00,000.00,022.1,021.5,000.0,030.3,023.5,11.7,0000.0,0004.16,0008.62,0003.71
2024-01-05 23:12:00,SystemResetWarning,0822.4,5.00,000.00,022.1,021.5,000.0,030.3,023.5,11.7,0000.0,0004.19,0009.57,0003.72
2024-01-05 23:13:00,SystemResetWarning,0822.4,5.00,000.00,022.2,021.5,000.0,030.3,023.4,11.6,0000.0,0004.21,0009.69,0003.72
2024-01-05 23:14:00,SystemResetWarning,0822.4,5.00,000.00,022.2,021.5,000.0,030.4,023.5,11.5,0000.0,0004.21,0009.70,0003.71
2024-01-05 23:15:00,SystemResetWarning,0822.4,5.00,000.00,022.2,021.5,000.0,030.4,023.5,11.4,0000.0,0004.19,0009.82,0003.71
2024-01-05 23:16:00,SystemResetWarning,0822.4,5.01,000.00,022.2,021.6,000.0,030.4,023.5,11.4,0000.0,0004.19,0009.96,0003.72
2024-01-05 23:17:00,SystemResetWarning,0822.4,5.00,000.00,022.2,021.6,000.0,030.4,023.5,11.3,0000.0,0004.20,0010.21,0003.72
2024-01-05 23:18:00,SystemResetWarning,0822.4,5.00,000.00,022.2,021.6,000.0,030.4,023.5,11.3,0000.0,0004.20,0010.11,0003.72
2024-01-05 23:19:00,SystemResetWarning,0822.4,5.00,000.00,022.3,021.6,000.0,030.4,023.6,11.2,0000.0,0004.20,0010.12,0003.72
2024-01-05 23:20:00,SystemResetWarning,0822.4,5.00,000.00,022.3,021.6,000.0,030.4,023.6,11.2,0000.0,0004.23,0010.20,0003.70
2024-01-05 23:21:00,SystemResetWarning,0822.5,4.99,000.00,022.3,021.6,000.0,030.4,023.6,11.1,0000.0,0004.22,0009.75,0003.70
2024-01-05 23:22:00,SystemResetWarning,0822.4,4.99,000.00,022.3,021.6,000.0,030.5,023.6,11.1,0000.0,0004.22,0009.43,0003.70
2024-01-05 23:23:00,SystemResetWarning,0822.4,5.00,000.00,022.3,021.6,000.0,030.5,023.6,11.0,0000.0,0004.19,0008.64,0003.70
2024-01-05 23:24:00,SystemResetWarning,0822.4,5.01,000.00,022.3,021.6,000.0,030.5,023.6,11.0,0000.0,0004.18,0008.30,0003.69
2024-01-05 23:25:00,SystemResetWarning,0822.4,5.00,000.00,022.3,021.7,000.0,030.5,023.6,11.0,0000.0,0004.15,0008.25,0003.69
2024-01-05 23:26:00,SystemResetWarning,0822.4,5.00,000.00,022.3,021.7,000.0,030.5,023.6,11.0,0000.0,0004.12,0008.11,0003.68
2024-01-05 23:27:00,SystemResetWarning,0822.4,5.00,000.00,022.3,021.7,000.0,030.5,023.6,10.9,0000.0,0004.09,0007.80,0003.65
2024-01-05 23:28:00,SystemResetWarning,0822.4,4.99,000.00,022.4,021.7,000.0,030.5,023.6,10.9,0000.0,0004.03,0007.36,0003.63
2024-01-05 23:29:00,SystemResetWarning,0822.4,5.00,000.00,022.4,021.7,000.0,030.5,023.7,10.9,0000.0,0003.97,0006.53,0003.61
2024-01-05 23:30:00,SystemResetWarning,0822.6,5.00,000.00,022.4,021.8,000.0,030.6,023.7,10.8,0000.0,0003.92,0006.39,0003.58
2024-01-05 23:31:00,SystemResetWarning,0822.6,5.00,000.00,022.4,021.8,000.0,030.6,023.7,10.8,0000.0,0003.84,0006.82,0003.55
2024-01-05 23:32:00,SystemResetWarning,0822.4,5.01,000.00,022.4,021.8,000.0,030.6,023.7,10.8,0000.0,0003.81,0007.31,0003.53
2024-01-05 23:33:00,SystemResetWarning,0822.4,5.00,000.00,022.4,021.8,000.0,030.6,023.7,10.8,0000.0,0003.76,0007.46,0003.49
2024-01-05 23:34:00,SystemResetWarning,0822.6,5.00,000.00,022.4,021.8,000.0,030.6,023.8,10.8,0000.0,0003.71,0007.41,0003.45
2024-01-05 23:35:00,SystemResetWarning,0822.6,5.00,000.00,022.5,021.9,000.0,030.6,023.8,10.8,0000.0,0003.66,0007.38,0003.41
2024-01-05 23:36:00,SystemResetWarning,0822.6,5.00,000.00,022.5,021.9,000.0,030.6,023.8,10.7,0000.0,0003.64,0007.38,0003.37
2024-01-05 23:37:00,SystemResetWarning,0822.4,5.00,000.00,022.5,021.9,000.0,030.6,023.8,10.7,0000.0,0003.62,0007.38,0003.33
2024-01-05 23:38:00,SystemResetWarning,0822.5,5.00,000.00,022.5,021.9,000.0,030.7,023.8,10.7,0000.0,0003.59,0007.37,0003.31
2024-01-05 23:39:00,SystemResetWarning,0822.9,5.00,000.00,022.5,021.9,000.0,030.7,023.9,10.7,0000.0,0003.56,0007.32,0003.29
2024-01-05 23:40:00,SystemResetWarning,0823.0,5.00,000.00,022.5,022.0,000.0,030.7,023.9,10.7,0000.0,0003.54,0007.19,0003.27
2024-01-05 23:41:00,SystemResetWarning,0823.1,5.00,000.00,022.5,022.0,000.0,030.7,023.9,10.7,0000.0,0003.52,0007.24,0003.25
2024-01-05 23:42:00,SystemResetWarning,0823.1,5.00,000.00,022.6,022.0,000.0,030.7,023.9,10.7,0000.0,0003.52,0006.61,0003.23
2024-01-05 23:43:00,SystemResetWarning,0822.8,5.00,000.00,022.6,022.0,000.0,030.7,023.9,10.8,0000.0,0003.50,0005.93,0003.21
2024-01-05 23:44:00,SystemResetWarning,0822.5,5.00,000.00,022.6,022.0,000.0,030.7,023.9,10.8,0000.0,0003.51,0005.34,0003.21
2024-01-05 23:45:00,SystemResetWarning,0822.6,5.00,000.00,022.6,022.0,000.0,030.8,023.9,10.8,0000.0,0003.53,0005.43,0003.21
2024-01-05 23:46:00,SystemResetWarning,0822.7,5.00,000.00,022.6,022.0,000.0,030.8,023.8,10.8,0000.0,0003.55,0006.71,0003.22
2024-01-05 23:47:00,SystemResetWarning,0822.6,5.00,000.00,022.6,022.0,000.0,030.8,023.8,10.8,0000.0,0003.56,0006.95,0003.23
2024-01-05 23:48:00,SystemResetWarning,0822.7,5.00,000.00,022.6,022.0,000.0,030.8,023.8,10.9,0000.0,0003.57,0006.91,0003.23
2024-01-05 23:49:00,SystemResetWarning,0822.7,5.00,000.00,022.5,021.9,000.0,030.8,023.7,10.9,0000.0,0003.57,0006.97,0003.24
2024-01-05 23:50:00,SystemResetWarning,0822.8,5.00,000.00,022.5,021.8,000.0,030.8,023.6,10.9,0000.0,0003.59,0007.64,0003.26
2024-01-05 23:51:00,SystemResetWarning,0822.7,5.00,000.00,022.4,021.7,000.0,030.8,023.6,10.9,0000.0,0003.63,0007.80,0003.28
2024-01-05 23:52:00,SystemResetWarning,0822.9,5.00,000.00,022.4,021.7,000.0,030.8,023.5,10.9,0000.0,0003.67,0008.01,0003.31
2024-01-05 23:53:00,SystemResetWarning,0822.7,5.00,000.00,022.4,021.6,000.0,030.8,023.5,11.0,0000.0,0003.72,0008.35,0003.35
2024-01-05 23:54:00,SystemResetWarning,0822.8,5.00,000.00,022.4,021.6,000.0,030.8,023.5,11.1,0000.0,0003.79,0008.81,0003.40
2024-01-05 23:55:00,SystemResetWarning,0822.6,5.01,000.00,022.4,021.6,000.0,030.8,023.5,11.2,0000.0,0003.82,0009.13,0003.42
2024-01-05 23:56:00,SystemResetWarning,0822.7,5.00,000.00,022.4,021.6,000.0,030.8,023.5,11.3,0000.0,0003.84,0009.44,0003.44
2024-01-05 23:57:00,SystemResetWarning,0822.7,4.99,000.00,022.4,021.6,000.0,030.8,023.6,11.3,0000.0,0003.88,0009.48,0003.46
2024-01-05 23:58:00,SystemResetWarning,0822.6,5.01,000.00,022.4,021.7,000.0,030.7,023.7,11.3,0000.0,0003.91,0009.32,0003.48
2024-01-05 23:59:00,SystemResetWarning,0822.8,4.99,000.00,022.4,021.7,000.0,030.7,023.7,11.3,0000.0,0003.95,0009.36,0003.50
